This demonstration page uses our WeatherBlox Daily Observations layout. Learn more.

Left ArrowRight Arrow

Hourly Observations for September 21, 2019

Temp ( °F °C ) Dew Point ( °F °C ) Humidity (%) Winds ( mph kmh ) Pressure ( in mb ) Visibility ( mi km ) Precip ( " mm )
12:53 am 00:53 Clear 62 16.7 55 12.8 78 78 NE 3 6 30.25 1025 10 16 0.00 0.00
1:53 am 01:53 Clear 60 15.6 55 12.8 84 84 Calm 30.26 1025 10 16 0.00 0.00
2:53 am 02:53 Clear 59 15 55 12.8 87 87 Calm 30.26 1025 10 16 0.00 0.00
3:53 am 03:53 Clear 60 15.6 55 12.8 84 84 Calm 30.26 1025 10 16 0.00 0.00
4:53 am 04:53 Clear 59 15 55 12.8 87 87 Calm 30.26 1025 10 16 0.00 0.00
5:53 am 05:53 Clear 57 13.9 54 12.2 90 90 Calm 30.26 1025 10 16 0.00 0.00
6:53 am 06:53 Clear 58 14.4 55 12.8 90 90 Calm 30.29 1026 10 16 0.00 0.00
7:53 am 07:53 Sunny 57 13.9 55 12.8 93 93 Calm 30.31 1026 10 16 0.00 0.00
8:53 am 08:53 Sunny 65 18.3 57 13.9 76 76 Calm 30.32 1027 10 16 0.00 0.00
9:53 am 09:53 Sunny 71 21.7 59 15 66 66 Calm 30.32 1027 10 16 0.00 0.00
10:53 am 10:53 Sunny 77 25 63 17.2 62 62 WSW 5 7 30.31 1027 10 16 0.00 0.00
11:53 am 11:53 Sunny 79 26.1 61 16.1 54 54 E 6 9 30.29 1026 10 16 0.00 0.00
12:53 pm 12:53 Partly Cloudy 82 27.8 61 16.1 49 49 VRB 3 6 30.28 1025 10 16 0.00 0.00
1:53 pm 13:53 Mostly Cloudy 84 28.9 57 13.9 40 40 NNE 6 9 30.25 1024 10 16 0.00 0.00
2:53 pm 14:53 Sunny 85 29.4 54 12.2 35 35 VRB 6 9 30.23 1024 10 16 0.00 0.00
3:53 pm 15:53 Mostly Sunny 85 29.4 55 12.8 36 36 Calm 30.20 1023 10 16 0.00 0.00
4:53 pm 16:53 Sunny 87 30.6 55 12.8 34 34 Calm 30.18 1022 10 16 0.00 0.00
5:53 pm 17:53 Sunny 86 30 54 12.2 33 33 Calm 30.17 1022 10 16 0.00 0.00
6:53 pm 18:53 Sunny 85 29.4 53 11.7 33 33 SSE 3 6 30.16 1021 10 16 0.00 0.00
7:53 pm 19:53 Clear 75 23.9 60 15.6 60 60 Calm 30.18 1022 9 14 0.00 0.00
8:53 pm 20:53 Clear 71 21.7 62 16.7 73 73 Calm 30.19 1022 10 16 0.00 0.00
9:53 pm 21:53 Clear 70 21.1 60 15.6 71 71 Calm 30.20 1023 10 16 0.00 0.00
10:53 pm 22:53 Clear 68 20 60 15.6 76 76 Calm 30.21 1023 10 16 0.00 0.00
11:53 pm 23:53 Clear 65 18.3 60 15.6 84 84 Calm 30.22 1023 10 16 0.00 0.00

Powered by AerisWeather